STARLINK-36304, 68550

Orbit data source: Space-Track

STARLINK-36304, 68550 is a payload satellite owned by SpaceX/Seattle (US) in LEO that was launched on Thu, 02 Apr 2026 UTC via an FALCON 9 launch vehicle from the Air Force Eastern Test Range (AFETR). Payload-class satellites include a variety of spacecraft equipped with specific instruments for various scientific and technological missions. These include communications satellites like Starlink; space stations such as the ISS; scientific satellites like the Hubble; Earth observation satellites from companies like Planet Labs, Umbra, and HawkEye 360; GPS; miniature CubeSats for education and research; and military/defense satellites.

Loading next visibility...
Identifier
68550, 2026-070J
Orbit
LEO
Country
Flag of USUS
Related business
Manufacturer
SpaceX/Seattle
Mission
Operational spacecraft
Bus & Motor
STARLINK V2MO, Unknown motor
Mass
575 kg wet, ~530 kg dry
Launch date (UTC)
2026-04-02 (2 months ago)
Launch vehicle
FALCON 9
Launch site
Air Force Eastern Test Range (AFETR)
Object type
Payload
Rocket body
Debris
Shape & HBR
Unknown shape, 14.5 m
Radar Cross Section
RCS unknown

Expand to show TLE details & history
Last TLE update: 16 hours ago

TLE from 16 hours ago
0 STARLINK-36304
1 68550U 26070J   26145.32391761  .00031457  00000-0  93797-3 0  9997
2 68550  53.1605   6.2147 0001211  61.7059 298.4066 15.34409477  8297
Epoch: 2026-05-25T07:46Z
TLE epoch observation values (Epoch: 2026-05-25T07:46:26.481Z)
Latitude
Longitude
6.69101°
Altitude
463.182 km
Speed
7.636 km/s
True Right ascension
00h 24m 51s
True Declination
0° 00' 00"
Sunlit
Object was in daylight at epoch
Visualization orbit readout
Latitude
Unknown
Longitude
Unknown
Altitude
Unknown
Speed
Unknown
Apparent Right ascension
Unknown
Apparent Declination
Unknown
Sunlit
N/A
Visualization observer readout
Local Sidereal Time
09:22:41
Azimuth
Unknown
Elevation
Unknown
Doppler factor
Unknown
Orbital elements
Apogee altitude
463.76 km
Perigee altitude
462.103 km
Semi-major axis
6,841.069 km
Eccentricity
0.00012
Inclination
53.1605°
RAAN
6.2147°
Arg. of periapsis
61.7059°
True anomaly
298.39439°
Mean anomaly
298.4066°
Eccentric anomaly
298.4005°
Mean motion
3.83581 °/min
Orbital period
93.85 mins
BSTAR
0.00093797
Loading maneuver chart data...
Computing Atmospheric mass density...
Loading historical data...
Loading historical data...
Loading historical data...
Loading historical data...
Loading historical data...
Loading historical data...
Loading historical data...

Documentation

Showing up to 5 results
|